{"data":{"norad_id":66470,"epoch":"2026-09-20T08:01:44.181696Z","epoch_age_seconds":103603,"freshness":"FRESH","line1":"1 66470U 25262Q   26263.33453914  .00018961  00000+0  69673-3 0  9999","line2":"2 66470  43.0051 277.0148 0001571 276.9476  83.1197 15.27581942 48670","mean_motion":15.27581942,"eccentricity":0.0001571,"inclination_deg":43.0051,"raan_deg":277.0148,"arg_perigee_deg":276.9476,"mean_anomaly_deg":83.1197,"bstar":0.00069673,"rev_number":4867,"period_min":94.266628873255,"perigee_km":481.96538957704,"apogee_km":484.12117242133,"semimajor_km":6861.1802809992,"source":"CELESTRAK","updated_at":"2026-09-21T09:00:35.915344Z"}}